Regional Weather Roundup
Issued by NWS

Home | Current Version | Previous Version | Text Only | Print | Product List | Glossary Off
Versions: 1 2 3 4 5 6 7 8 9 10 11 12 13 14 15 16 17 18 19 20 21 22 23 24 25 26 27 28 29 30 31 32 33 34 35 36 37 38 39 40 41 42 43 44 45 46 47 48 49 50

000
ASUS43 KBIS 251201
RWRND

NORTH DAKOTA REGIONAL WEATHER ROUNDUP
NATIONAL WEATHER SERVICE BISMARCK ND
700 AM CDT MON MAY 25 2015

NOTE: "FAIR" INDICATES FEW OR NO CLOUDS BELOW 12,000 FEET WITH NO
SIGNIFICANT WEATHER AND/OR OBSTRUCTIONS TO VISIBILITY.


NDZ001>003-009>011-017-251300-
NORTHWEST NORTH DAKOTA

CITY           SKY/WX    TMP DP  RH WIND       PRES   REMARKS
WILLISTON      CLOUDY    48  44  86 CALM      29.89R
6HR MIN TEMP:  43; 6HR MAX TEMP:  51;

MINOT          CLOUDY    54  48  80 W5        29.86R
MINOT AFB      CLOUDY    52  52 100 W3        29.85R
$$

NDZ018>021-031>035-040>046-251300-
SOUTHWEST NORTH DAKOTA

CITY           SKY/WX    TMP DP  RH WIND       PRES   REMARKS
BISMARCK       LGT RAIN  56  55  97 N6        29.85R FOG
6HR MIN TEMP:  55; 6HR MAX TEMP:  56; 6HR PCP:  0.16;

DICKINSON      CLOUDY    54  50  86 NE5       29.86R
GARRISON         N/A     55  52  89 NW7       29.85S
6HR MIN TEMP:  54; 6HR MAX TEMP:  60;

HETTINGER ARPT LGT RAIN  53  51  93 NE9       29.85S FOG
$$

NDZ004>008-012>016-024-026-027-054-251300-
NORTHEAST NORTH DAKOTA

CITY           SKY/WX    TMP DP  RH WIND       PRES   REMARKS
GRAND FORKS    CLOUDY    56  53  90 SW3       29.79F
GRND FRKS AFB  CLOUDY    55  51  86 NW6       29.80S
DEVILS LAKE    CLOUDY    57  46  67 CALM      29.83S
$$

NDZ022-023-025-028>030-036>039-047>053-251300-
SOUTHEAST NORTH DAKOTA

CITY           SKY/WX    TMP DP  RH WIND       PRES   REMARKS
FARGO          LGT RAIN  58  56  93 N9        29.78S
6HR MIN TEMP:  58; 6HR MAX TEMP:  62; 6HR PCP:  0.22;

JAMESTOWN      LGT RAIN  57  54  89 NE5       29.82R FOG
$$



USA.gov is the U.S. government's official web portal to all federal, state and local government web resources and services.